Location: London
(51.5166°N, 0.1046°W)
Time: 00:51:16
(UTC+01:00)

ISS - Visible Passes

Search period start: 25 October 2014 00:00
Search period end: 03 November 2014 23:00
Orbit: 412 x 416 km, 51.6° (Epoch: 24 October)

Date Brightness Start Highest point End Pass type
(mag) Time Alt. Az. Time Alt. Az. Time Alt. Az.
25 Oct -0.9 19:12:36 10° W 19:15:08 20° SW 19:17:40 10° SSE visible
26 Oct -1.3 17:23:09 10° W 17:26:05 29° SSW 17:29:01 10° SSE visible
28 Oct -0.3 17:21:51 10° WSW 17:23:53 15° SW 17:25:54 10° S visible
